Time,TemperatureF,DewpointF,PressureIn,WindDirection,WindDirectionDegrees,WindSpeedMPH,WindSpeedGustMPH,Humidity,HourlyPrecipIn,Conditions,Clouds,dailyrainin,SoftwareType,DateUTC
2013-03-12 00:02:00,72.0,61.0,30.00,SSW,193,7.0,13.0,69,-99.99,,,-99.99,,2013-03-12 04:02:00,
2013-03-12 00:13:00,72.0,61.0,30.00,SSW,193,7.0,13.0,69,-99.99,,,-99.99,,2013-03-12 04:13:00,
2013-03-12 00:22:00,72.0,62.0,30.00,South,170,7.0,19.0,70,-99.99,,,-99.99,,2013-03-12 04:22:00,
2013-03-12 00:32:00,72.0,61.0,29.99,South,170,9.0,16.0,69,-99.99,,,-99.99,,2013-03-12 04:32:00,
2013-03-12 00:43:00,72.0,61.0,29.99,South,170,9.0,16.0,69,-99.99,,,-99.99,,2013-03-12 04:43:00,
2013-03-12 00:52:00,72.0,62.0,29.98,ESE,107,8.0,18.0,71,-99.99,,,-99.99,,2013-03-12 04:52:00,
2013-03-12 01:02:00,72.0,63.0,29.99,SE,138,7.0,16.0,73,-99.99,,,-99.99,,2013-03-12 05:02:00,
2013-03-12 01:12:00,72.0,63.0,29.99,SE,138,7.0,16.0,73,-99.99,,,-99.99,,2013-03-12 05:12:00,
2013-03-12 01:22:00,72.0,62.0,29.98,East,87,8.0,16.0,71,-99.99,,,-99.99,,2013-03-12 05:22:00,
2013-03-12 01:32:00,72.0,61.0,29.97,SSE,163,9.0,21.0,69,-99.99,,,-99.99,,2013-03-12 05:32:00,
2013-03-12 01:42:00,72.0,61.0,29.97,SSE,163,9.0,21.0,69,-99.99,,,-99.99,,2013-03-12 05:42:00,
2013-03-12 01:52:00,72.0,61.0,29.97,NNW,329,10.0,16.0,68,-99.99,,,-99.99,,2013-03-12 05:52:00,
2013-03-12 02:02:00,72.0,62.0,29.97,NE,49,9.0,22.0,70,-99.99,,,-99.99,,2013-03-12 06:02:00,
2013-03-12 02:12:00,72.0,62.0,29.97,NE,49,9.0,22.0,70,-99.99,,,-99.99,,2013-03-12 06:12:00,
2013-03-12 02:22:00,72.0,63.0,29.97,North,7,9.0,16.0,73,-99.99,,,-99.99,,2013-03-12 06:22:00,
2013-03-12 02:32:00,72.0,63.0,29.98,SE,135,9.0,20.0,73,-99.99,,,-99.99,,2013-03-12 06:32:00,
2013-03-12 02:42:00,72.0,63.0,29.98,SE,135,9.0,20.0,73,-99.99,,,-99.99,,2013-03-12 06:42:00,
2013-03-12 02:52:00,72.0,63.0,29.97,North,0,9.0,16.0,73,-99.99,,,-99.99,,2013-03-12 06:52:00,
2013-03-12 03:02:00,72.0,63.0,29.97,NNE,17,8.0,19.0,73,-99.99,,,-99.99,,2013-03-12 07:02:00,
2013-03-12 03:12:00,72.0,63.0,29.97,NNE,17,8.0,19.0,73,-99.99,,,-99.99,,2013-03-12 07:12:00,
2013-03-12 03:22:00,72.0,63.0,29.96,ENE,72,9.0,14.0,74,-99.99,,,-99.99,,2013-03-12 07:22:00,
2013-03-12 03:32:00,72.0,64.0,29.96,ENE,58,10.0,20.0,75,-99.99,,,-99.99,,2013-03-12 07:32:00,
2013-03-12 03:42:00,72.0,64.0,29.96,ENE,58,10.0,20.0,75,-99.99,,,-99.99,,2013-03-12 07:42:00,
2013-03-12 03:52:00,72.0,63.0,29.95,NE,35,7.0,16.0,74,-99.99,,,-99.99,,2013-03-12 07:52:00,
2013-03-12 04:02:00,71.0,63.0,29.93,ENE,73,9.0,18.0,76,-99.99,,,-99.99,,2013-03-12 08:02:00,
2013-03-12 04:13:00,71.0,63.0,29.93,ENE,73,9.0,18.0,76,-99.99,,,-99.99,,2013-03-12 08:13:00,
2013-03-12 04:22:00,71.0,63.0,29.93,NNE,28,8.0,21.0,76,-99.99,,,-99.99,,2013-03-12 08:22:00,
2013-03-12 04:33:00,72.0,64.0,29.94,NE,51,9.0,18.0,77,-99.99,,,-99.99,,2013-03-12 08:33:00,
2013-03-12 04:42:00,72.0,64.0,29.94,NE,51,9.0,18.0,77,-99.99,,,-99.99,,2013-03-12 08:42:00,
2013-03-12 04:52:00,71.0,62.0,29.93,East,100,9.0,18.0,74,-99.99,,,-99.99,,2013-03-12 08:52:00,
2013-03-12 05:03:00,71.0,62.0,29.93,ENE,62,9.0,15.0,74,-99.99,,,-99.99,,2013-03-12 09:03:00,
2013-03-12 05:12:00,71.0,62.0,29.93,ENE,62,9.0,15.0,74,-99.99,,,-99.99,,2013-03-12 09:12:00,
2013-03-12 05:22:00,71.0,63.0,29.92,NNW,335,9.0,19.0,75,-99.99,,,-99.99,,2013-03-12 09:22:00,
2013-03-12 05:32:00,72.0,63.0,29.92,NE,56,9.0,17.0,74,-99.99,,,-99.99,,2013-03-12 09:32:00,
2013-03-12 05:42:00,72.0,63.0,29.92,NE,56,9.0,17.0,74,-99.99,,,-99.99,,2013-03-12 09:42:00,
2013-03-12 05:52:00,71.0,63.0,2.99,NNE,15,10.0,20.0,75,-99.99,,,-99.99,,2013-03-12 09:52:00,
2013-03-12 06:02:00,71.0,63.0,29.91,North,359,11.0,22.0,77,-99.99,,,-99.99,,2013-03-12 10:02:00,
2013-03-12 06:12:00,71.0,63.0,29.91,North,359,11.0,22.0,77,-99.99,,,-99.99,,2013-03-12 10:12:00,
2013-03-12 06:22:00,72.0,65.0,29.92,ENE,70,10.0,20.0,78,-99.99,,,-99.99,,2013-03-12 10:22:00,
2013-03-12 06:32:00,72.0,64.0,29.93,NE,53,9.0,20.0,76,-99.99,,,-99.99,,2013-03-12 10:32:00,
2013-03-12 06:42:00,72.0,64.0,29.93,NE,53,9.0,20.0,76,-99.99,,,-99.99,,2013-03-12 10:42:00,
2013-03-12 06:53:00,72.0,64.0,29.93,NNE,30,9.0,15.0,76,-99.99,,,-99.99,,2013-03-12 10:53:00,
2013-03-12 07:02:00,72.0,64.0,29.95,East,93,7.0,18.0,76,-99.99,,,-99.99,,2013-03-12 11:02:00,
2013-03-12 07:12:00,72.0,64.0,29.95,East,93,7.0,18.0,76,-99.99,,,-99.99,,2013-03-12 11:12:00,
2013-03-12 07:22:00,72.0,64.0,29.94,ENE,76,9.0,18.0,77,-99.99,,,-99.99,,2013-03-12 11:22:00,
2013-03-12 07:32:00,72.0,64.0,29.94,East,80,9.0,21.0,77,-99.99,,,-99.99,,2013-03-12 11:32:00,
2013-03-12 07:42:00,72.0,64.0,29.94,East,80,9.0,21.0,77,-99.99,,,-99.99,,2013-03-12 11:42:00,
2013-03-12 07:52:00,72.0,65.0,29.95,North,7,8.0,16.0,79,-99.99,,,-99.99,,2013-03-12 11:52:00,
2013-03-12 08:02:00,72.0,65.0,29.95,North,4,7.0,14.0,79,-99.99,,,-99.99,,2013-03-12 12:02:00,
2013-03-12 08:12:00,72.0,65.0,29.95,North,4,7.0,14.0,79,-99.99,,,-99.99,,2013-03-12 12:12:00,
2013-03-12 08:22:00,72.0,64.0,29.95,NE,35,6.0,13.0,77,-99.99,,,-99.99,,2013-03-12 12:22:00,
2013-03-12 08:32:00,72.0,64.0,29.95,ENE,77,8.0,14.0,77,-99.99,,,-99.99,,2013-03-12 12:32:00,
2013-03-12 08:42:00,72.0,64.0,29.95,ENE,77,8.0,14.0,77,-99.99,,,-99.99,,2013-03-12 12:42:00,
2013-03-12 08:52:00,73.0,66.0,29.94,ENE,62,9.0,18.0,78,-99.99,,,-99.99,,2013-03-12 12:52:00,
2013-03-12 09:02:00,72.0,65.0,29.94,SE,125,9.0,19.0,78,-99.99,,,-99.99,,2013-03-12 13:02:00,
2013-03-12 09:12:00,72.0,65.0,29.94,SE,125,9.0,19.0,78,-99.99,,,-99.99,,2013-03-12 13:12:00,
2013-03-12 09:22:00,74.0,67.0,29.96,NE,41,8.0,17.0,78,-99.99,,,-99.99,,2013-03-12 13:22:00,
2013-03-12 09:32:00,74.0,66.0,29.97,ENE,77,8.0,15.0,75,-99.99,,,-99.99,,2013-03-12 13:32:00,
2013-03-12 09:42:00,74.0,66.0,29.97,ENE,77,8.0,15.0,75,-99.99,,,-99.99,,2013-03-12 13:42:00,
2013-03-12 09:52:00,74.0,66.0,29.98,NNE,24,8.0,13.0,76,-99.99,,,-99.99,,2013-03-12 13:52:00,
2013-03-12 10:02:00,74.0,66.0,29.98,ENE,77,7.0,13.0,76,-99.99,,,-99.99,,2013-03-12 14:02:00,
2013-03-12 10:12:00,74.0,66.0,29.98,ENE,77,7.0,13.0,76,-99.99,,,-99.99,,2013-03-12 14:12:00,
2013-03-12 10:22:00,74.0,66.0,29.99,NE,45,6.0,15.0,77,-99.99,,,-99.99,,2013-03-12 14:22:00,
2013-03-12 10:33:00,74.0,66.0,30.00,ENE,77,8.0,15.0,77,-99.99,,,-99.99,,2013-03-12 14:33:00,
2013-03-12 10:42:00,74.0,66.0,30.00,ENE,77,8.0,15.0,77,-99.99,,,-99.99,,2013-03-12 14:42:00,
2013-03-12 10:53:00,74.0,66.0,30.01,East,87,7.0,12.0,77,-99.99,,,-99.99,,2013-03-12 14:53:00,
2013-03-12 11:02:00,75.0,67.0,30.01,North,6,7.0,13.0,76,-99.99,,,-99.99,,2013-03-12 15:02:00,
2013-03-12 11:13:00,75.0,67.0,30.01,North,6,7.0,13.0,76,-99.99,,,-99.99,,2013-03-12 15:13:00,
2013-03-12 11:22:00,75.0,67.0,30.00,NE,49,7.0,13.0,77,-99.99,,,-99.99,,2013-03-12 15:22:00,
2013-03-12 11:32:00,75.0,67.0,30.00,SE,135,7.0,12.0,77,-99.99,,,-99.99,,2013-03-12 15:32:00,
2013-03-12 11:42:00,75.0,67.0,30.00,SE,135,7.0,12.0,77,-99.99,,,-99.99,,2013-03-12 15:42:00,
2013-03-12 11:53:00,75.0,67.0,30.00,ENE,68,7.0,19.0,77,-99.99,,,-99.99,,2013-03-12 15:53:00,
2013-03-12 12:02:00,75.0,68.0,29.99,NNE,17,7.0,18.0,78,-99.99,,,-99.99,,2013-03-12 16:02:00,
2013-03-12 12:12:00,75.0,68.0,29.99,NNE,17,7.0,18.0,78,-99.99,,,-99.99,,2013-03-12 16:12:00,
2013-03-12 12:22:00,75.0,68.0,30.00,ENE,75,7.0,14.0,78,-99.99,,,-99.99,,2013-03-12 16:22:00,
2013-03-12 12:33:00,76.0,68.0,30.00,NNE,23,7.0,16.0,77,-99.99,,,-99.99,,2013-03-12 16:33:00,
2013-03-12 12:43:00,76.0,68.0,30.00,NNE,23,7.0,16.0,77,-99.99,,,-99.99,,2013-03-12 16:43:00,
2013-03-12 12:53:00,76.0,68.0,30.00,ESE,107,8.0,24.0,76,-99.99,,,-99.99,,2013-03-12 16:53:00,
2013-03-12 13:03:00,76.0,69.0,29.99,NNE,17,8.0,16.0,78,-99.99,,,-99.99,,2013-03-12 17:03:00,
2013-03-12 13:13:00,76.0,69.0,29.99,NNE,17,8.0,16.0,78,-99.99,,,-99.99,,2013-03-12 17:13:00,
2013-03-12 13:22:00,76.0,68.0,29.99,East,86,8.0,18.0,77,-99.99,,,-99.99,,2013-03-12 17:22:00,
2013-03-12 13:34:00,76.0,69.0,29.98,East,79,8.0,15.0,78,-99.99,,,-99.99,,2013-03-12 17:34:00,
2013-03-12 13:43:00,76.0,69.0,29.98,East,79,8.0,15.0,78,-99.99,,,-99.99,,2013-03-12 17:43:00,
2013-03-12 13:54:00,75.0,68.0,29.97,East,97,8.0,15.0,79,-99.99,,,-99.99,,2013-03-12 17:54:00,
2013-03-12 14:03:00,75.0,69.0,29.96,NE,45,9.0,16.0,81,-99.99,,,-99.99,,2013-03-12 18:03:00,
2013-03-12 14:13:00,76.0,69.0,29.96,ESE,104,8.0,14.0,78,-99.99,,,-99.99,,2013-03-12 18:13:00,
2013-03-12 14:23:00,76.0,69.0,29.96,ESE,104,8.0,14.0,78,-99.99,,,-99.99,,2013-03-12 18:23:00,
2013-03-12 14:33:00,77.0,68.0,29.95,ENE,58,8.0,17.0,75,-99.99,,,-99.99,,2013-03-12 18:33:00,
2013-03-12 14:42:00,77.0,68.0,29.95,ENE,58,8.0,17.0,75,-99.99,,,-99.99,,2013-03-12 18:42:00,
2013-03-12 14:53:00,76.0,68.0,29.95,SSE,167,8.0,19.0,77,-99.99,,,-99.99,,2013-03-12 18:53:00,
2013-03-12 15:03:00,76.0,69.0,29.94,ENE,63,7.0,13.0,78,-99.99,,,-99.99,,2013-03-12 19:03:00,
2013-03-12 15:13:00,76.0,69.0,29.94,ENE,63,7.0,13.0,78,-99.99,,,-99.99,,2013-03-12 19:13:00,
2013-03-12 15:23:00,75.0,68.0,29.94,ENE,58,7.0,15.0,79,-99.99,,,-99.99,,2013-03-12 19:23:00,
2013-03-12 15:33:00,74.0,67.0,29.94,East,98,7.0,16.0,80,-99.99,,,-99.99,,2013-03-12 19:33:00,
2013-03-12 15:43:00,74.0,67.0,29.94,East,98,7.0,16.0,80,-99.99,,,-99.99,,2013-03-12 19:43:00,
2013-03-12 15:53:00,75.0,67.0,29.93,North,353,6.0,11.0,75,-99.99,,,-99.99,,2013-03-12 19:53:00,
2013-03-12 16:02:00,75.0,66.0,29.93,North,357,6.0,12.0,74,-99.99,,,-99.99,,2013-03-12 20:02:00,
2013-03-12 16:12:00,75.0,66.0,29.93,North,357,6.0,12.0,74,-99.99,,,-99.99,,2013-03-12 20:12:00,
2013-03-12 16:23:00,75.0,66.0,29.94,South,173,7.0,17.0,73,-99.99,,,-99.99,,2013-03-12 20:23:00,
2013-03-12 16:33:00,74.0,66.0,29.94,South,169,9.0,26.0,75,-99.99,,,-99.99,,2013-03-12 20:33:00,
2013-03-12 16:42:00,74.0,66.0,29.94,South,169,9.0,26.0,75,-99.99,,,-99.99,,2013-03-12 20:42:00,
2013-03-12 16:53:00,74.0,67.0,29.94,SSE,153,6.0,13.0,80,-99.99,,,-99.99,,2013-03-12 20:53:00,
2013-03-12 17:02:00,74.0,67.0,29.94,SE,142,5.0,8.0,80,-99.99,,,-99.99,,2013-03-12 21:02:00,
2013-03-12 17:13:00,74.0,67.0,29.94,SE,142,5.0,8.0,80,-99.99,,,-99.99,,2013-03-12 21:13:00,
2013-03-12 17:22:00,75.0,68.0,29.93,SSE,156,7.0,18.0,78,-99.99,,,-99.99,,2013-03-12 21:22:00,
2013-03-12 17:33:00,75.0,67.0,29.93,SSE,167,4.0,10.0,76,-99.99,,,-99.99,,2013-03-12 21:33:00,
2013-03-12 17:43:00,75.0,67.0,29.93,SSE,167,4.0,10.0,76,-99.99,,,-99.99,,2013-03-12 21:43:00,
2013-03-12 17:53:00,76.0,67.0,29.93,ENE,70,4.0,7.0,75,-99.99,,,-99.99,,2013-03-12 21:53:00,
2013-03-12 18:02:00,76.0,67.0,29.92,North,359,5.0,10.0,75,-99.99,,,-99.99,,2013-03-12 22:02:00,
2013-03-12 18:13:00,76.0,67.0,29.92,North,359,5.0,10.0,75,-99.99,,,-99.99,,2013-03-12 22:13:00,
2013-03-12 18:23:00,76.0,69.0,29.93,ENE,77,4.0,7.0,78,-99.99,,,-99.99,,2013-03-12 22:23:00,
2013-03-12 18:33:00,75.0,68.0,29.93,NE,53,4.0,8.0,78,-99.99,,,-99.99,,2013-03-12 22:33:00,
2013-03-12 18:43:00,75.0,68.0,29.93,NE,53,4.0,8.0,78,-99.99,,,-99.99,,2013-03-12 22:43:00,
2013-03-12 18:53:00,75.0,68.0,29.93,SSE,153,5.0,18.0,79,-99.99,,,-99.99,,2013-03-12 22:53:00,
2013-03-12 19:02:00,75.0,65.0,29.94,SSW,210,9.0,24.0,71,-99.99,,,-99.99,,2013-03-12 23:02:00,
2013-03-12 19:12:00,75.0,65.0,29.94,SSW,210,9.0,24.0,71,-99.99,,,-99.99,,2013-03-12 23:12:00,
2013-03-12 19:23:00,77.0,64.0,29.94,South,177,17.0,25.0,64,-99.99,,,-99.99,,2013-03-12 23:23:00,
2013-03-12 19:34:00,76.0,62.0,29.93,SSW,194,13.0,22.0,63,-99.99,,,-99.99,,2013-03-12 23:34:00,
2013-03-12 19:43:00,76.0,62.0,29.93,SSW,194,13.0,22.0,63,-99.99,,,-99.99,,2013-03-12 23:43:00,
2013-03-12 19:52:00,77.0,64.0,29.93,SSE,166,14.0,22.0,65,-99.99,,,-99.99,,2013-03-12 23:52:00,
2013-03-12 20:03:00,76.0,64.0,29.93,SSW,207,9.0,13.0,66,-99.99,,,-99.99,,2013-03-13 00:03:00,
2013-03-12 20:13:00,76.0,64.0,29.93,SSW,207,9.0,13.0,66,-99.99,,,-99.99,,2013-03-13 00:13:00,
2013-03-12 20:23:00,76.0,64.0,29.93,South,180,10.0,15.0,67,-99.99,,,-99.99,,2013-03-13 00:23:00,
2013-03-12 20:33:00,76.0,65.0,29.95,SSW,200,12.0,16.0,68,-99.99,,,-99.99,,2013-03-13 00:33:00,
2013-03-12 20:42:00,76.0,65.0,29.95,SSW,200,12.0,16.0,68,-99.99,,,-99.99,,2013-03-13 00:42:00,
2013-03-12 20:53:00,75.0,63.0,29.95,SW,224,13.0,17.0,67,-99.99,,,-99.99,,2013-03-13 00:53:00,
2013-03-12 21:03:00,75.0,63.0,29.96,SSW,195,11.0,17.0,66,-99.99,,,-99.99,,2013-03-13 01:03:00,
2013-03-12 21:13:00,75.0,63.0,29.96,SSW,195,11.0,17.0,66,-99.99,,,-99.99,,2013-03-13 01:13:00,
2013-03-12 21:22:00,74.0,63.0,29.97,SSW,208,14.0,20.0,68,-99.99,,,-99.99,,2013-03-13 01:22:00,
2013-03-12 21:32:00,74.0,63.0,29.97,SW,222,14.0,18.0,69,-99.99,,,-99.99,,2013-03-13 01:32:00,
2013-03-12 21:42:00,74.0,63.0,29.97,SW,222,14.0,18.0,69,-99.99,,,-99.99,,2013-03-13 01:42:00,
2013-03-12 21:53:00,74.0,64.0,29.97,SW,226,15.0,28.0,70,-99.99,,,-99.99,,2013-03-13 01:53:00,
2013-03-12 22:02:00,74.0,64.0,29.98,SW,232,12.0,15.0,71,-99.99,,,-99.99,,2013-03-13 02:02:00,
2013-03-12 22:12:00,74.0,64.0,29.98,SW,232,12.0,15.0,71,-99.99,,,-99.99,,2013-03-13 02:12:00,
2013-03-12 22:22:00,74.0,64.0,29.99,West,259,12.0,17.0,72,-99.99,,,-99.99,,2013-03-13 02:22:00,
2013-03-12 22:32:00,73.0,64.0,29.99,SW,233,14.0,21.0,74,-99.99,,,-99.99,,2013-03-13 02:32:00,
2013-03-12 22:43:00,73.0,64.0,29.99,SW,233,14.0,21.0,74,-99.99,,,-99.99,,2013-03-13 02:43:00,
2013-03-12 22:53:00,73.0,65.0,29.99,West,264,14.0,19.0,76,-99.99,,,-99.99,,2013-03-13 02:53:00,
2013-03-12 23:02:00,73.0,65.0,29.99,WSW,245,11.0,18.0,76,-99.99,,,-99.99,,2013-03-13 03:02:00,
2013-03-12 23:13:00,73.0,65.0,29.99,WSW,245,11.0,18.0,76,-99.99,,,-99.99,,2013-03-13 03:13:00,
2013-03-12 23:22:00,72.0,65.0,30.00,West,262,11.0,17.0,78,-99.99,,,-99.99,,2013-03-13 03:22:00,
2013-03-12 23:32:00,72.0,65.0,30.00,SW,233,11.0,16.0,79,-99.99,,,-99.99,,2013-03-13 03:32:00,
2013-03-12 23:42:00,72.0,65.0,30.00,SW,233,11.0,16.0,79,-99.99,,,-99.99,,2013-03-13 03:42:00,
2013-03-12 23:53:00,72.0,65.0,30.00,SW,235,10.0,14.0,79,-99.99,,,-99.99,,2013-03-13 03:53:00,